Flag for Thailand Weather past 2 weeks in Bangkok, Thailand

93 °F

Passing clouds.

Feels Like: 99 °F
Forecast: 80 / 93 °F
Wind: 9 mph from East

Location: Don Muang Airport

Current Time: Nov 30, 2015 at 3:59:15 PM

Latest Report: Nov 30, 2015 at 3:30 PM

Visibility: N/A

Pressure: 29.83 "Hg

Humidity: 47%

Dew point: 70 °F

Location of BangkokLocation

Historic Weather in Bangkok — Graph


Bangkok temperature yesterday

Maximum temperature yesterday: 93 °F (at 3:00 PM)
Minimum temperature yesterday: 77 °F (at 4:30 AM)
Average temperature yesterday: 85 °F

Past Weeks' High & Low Weather Summary

High95 °F (Nov 17, 3:00 PM)100% (Nov 15, 6:30 PM)30.01 "Hg (Nov 15, 6:30 PM)
Low75 °F (Nov 28, 7:00 AM)47% (Nov 20, 2:30 PM)29.74 "Hg (Nov 16, 4:00 PM)
Average85 °F70%29.86 "Hg
* Reported Nov 15 2:00 PM — Nov 30 2:30 PM, Bangkok, Weather by CustomWeather, © 2015

Note: Actual official high and low records may vary slightly from our data, if they occured in-between our weather recording intervals... More about our weather records


Bangkok weather history for previous 24 hours

Time TempWeatherWind HumidityBarometerVisibility
2:30 PM
Mon, Nov 30
95 °FPassing clouds.7 mph47%29.86 "HgN/A
2:00 PM93 °FPassing clouds.7 mph49%29.86 "HgN/A
1:30 PM93 °FPassing clouds.7 mph47%29.86 "HgN/A
1:00 PM91 °FPassing clouds.5 mph49%29.89 "HgN/A
12:30 PM91 °FPassing clouds.6 mph56%29.92 "HgN/A
12:00 PM91 °FPassing clouds.5 mph56%29.92 "HgN/A
11:30 AM91 °FSunny.3 mph52%29.95 "Hg10 mi
10:30 AM90 °FPassing clouds.5 mph55%29.98 "HgN/A
10:00 AM88 °FPassing clouds.3 mph59%29.98 "HgN/A
9:30 AM86 °FPassing clouds.5 mph62%29.98 "HgN/A
9:00 AM84 °FPassing clouds.6 mph66%29.98 "HgN/A
8:30 AM84 °FSunny.6 mph66%29.98 "Hg10 mi
7:30 AM81 °FSunny.7 mph74%29.95 "Hg10 mi
7:00 AM81 °FPassing clouds.8 mph74%29.92 "Hg6 mi
6:30 AM81 °FPassing clouds.6 mph74%29.92 "Hg6 mi
6:00 AM79 °FPassing clouds.5 mph84%29.92 "Hg6 mi
5:30 AM81 °FPassing clouds.2 mph79%29.92 "Hg6 mi
5:00 AM81 °FPassing clouds.3 mph79%29.92 "Hg6 mi
4:30 AM81 °FPassing clouds.5 mph79%29.92 "Hg6 mi
4:00 AM81 °FPassing clouds.6 mph79%29.92 "Hg6 mi
3:30 AM81 °FPassing clouds.6 mph74%29.92 "Hg6 mi
3:00 AM82 °FPassing clouds.9 mph70%29.92 "Hg6 mi
2:30 AM82 °FPassing clouds.7 mph74%29.92 "Hg6 mi
2:00 AM82 °FPassing clouds.5 mph79%29.92 "Hg6 mi
1:30 AM82 °FPassing clouds.No wind84%29.95 "HgN/A
1:00 AM82 °FPassing clouds.5 mph79%29.95 "HgN/A
12:30 AM84 °FPassing clouds.6 mph74%29.95 "HgN/A
12:00 AM86 °FPassing clouds.6 mph66%29.95 "HgN/A
11:30 PM
Sun, Nov 29
86 °FPassing clouds.6 mph66%29.95 "HgN/A
11:00 PM86 °FPassing clouds.7 mph66%29.95 "HgN/A
10:30 PM86 °FPassing clouds.6 mph66%29.95 "HgN/A
10:00 PM88 °FPassing clouds.6 mph59%29.95 "HgN/A
9:30 PM86 °FPassing clouds.5 mph66%29.95 "HgN/A
9:00 PM88 °FPassing clouds.6 mph59%29.95 "HgN/A
8:30 PM88 °FPassing clouds.5 mph59%29.95 "HgN/A
8:00 PM86 °FPassing clouds.3 mph66%29.95 "HgN/A
7:30 PM86 °FPassing clouds.6 mph62%29.92 "HgN/A
7:00 PM88 °FPassing clouds.7 mph59%29.92 "HgN/A
6:30 PM88 °FSmoke.2 mph59%29.92 "HgN/A
6:00 PM88 °FPassing clouds.6 mph59%29.89 "HgN/A
5:30 PM90 °FPassing clouds.6 mph55%29.89 "HgN/A
4:30 PM91 °FPassing clouds.2 mph52%29.89 "HgN/A
4:00 PM91 °FPassing clouds.6 mph52%29.89 "HgN/A
3:30 PM93 °FPassing clouds.8 mph49%29.89 "HgN/A
3:00 PM93 °FPassing clouds.8 mph49%29.89 "HgN/A
Weather by CustomWeather, © 2015

See weather overviewHow to use our weather pages